FLOCK 2K-02

Last updated on Wed Feb 14 2018 16:20:52 GMT+0000 (Greenwich Mean Time)

1 42853U 17042AE 18044.89388886 .00001727 00000-0 55448-4 0 9998 2 42853 96.9932 307.3772 0011070 193.8459 166.2483 15.33520390 32689
UTC large
Height (km)
Speed (km/s)
/
Latitude / Longitude
Inclination (degrees)
Orbital Period (minutes)
Azimuth
Elevation
Range (km)
Doppler Factor

Next 0 passes for location: London (51.5072 / 0.1276)

Sorry there are no passes over London.